Weather History for Berlin, NH

Change the Weather History Date:

Saturday, February 16, 2013

  Actual Average Record
Temperature  
Mean Temperature 24 °F -  
Max Temperature 28 °F 27 °F 48 °F (2005)
Min Temperature 19 °F 1 °F -26 °F (2004)
Degree Days  
Heating Degree Days 42    
Moisture  
Dew Point 16 °F    
Average Humidity 72    
Maximum Humidity 88    
Minimum Humidity 50    
Precipitation  
Precipitation 0.02 in - - ()
Sea Level Pressure  
Sea Level Pressure 29.91 in    
Wind  
Wind Speed 2 mph (NNW)    
Max Wind Speed 9 mph    
Max Gust Speed -    
Visibility 7 miles    
Events Snow    
Averages and records for this station are not official NWS values.
T = Trace of Precipitation, MM = Missing Value Source: NWS Daily Summary

Daily Weather History Graph

Daily Weather History Graph

Search for Another Location

Airport:

Trip Planner

Search our weather history database for the weather conditions in past years. The results will help you decide how hot, cold, wet, or windy it might be!

Date:

Astronomy

Feb. 16, 2013 Rise Set
Actual Time 6:43 AM EST 5:15 PM EST
Civil Twilight 6:13 AM EST 5:45 PM EST
Nautical Twilight 5:39 AM EST 6:19 PM EST
Astronomical Twilight 5:05 AM EST 6:52 PM EST
Moon 9:36 AM EST (2/16) No Moon Set
Length of Visible Light 11h 31m
Length of Day
10h 32m
Waxing Crescent, 39% of the Moon is Illuminated
Feb 16
Waxing Crescent
Feb 17
First Quarter
Feb 25
Full
Mar 4
Last Quarter
Mar 11
New

Hourly Weather History & Observations

Time (EST) Temp. Windchill Dew Point Humidity Pressure Visibility Wind Dir Wind Speed Gust Speed Precip Events Conditions
12:52 AM 19.0 °F - 15.1 °F 85% 29.93 in 10.0 mi Calm Calm - N/A   Clear
1:52 AM 21.0 °F - 17.1 °F 85% 29.94 in 10.0 mi Calm Calm - N/A   Overcast
2:52 AM 21.9 °F - 18.0 °F 85% 29.94 in 10.0 mi Calm Calm - N/A   Overcast
4:04 AM 24.8 °F - 19.4 °F 80% 29.88 in 7.0 mi Calm Calm - 0.00 in Snow Light Snow
4:11 AM 24.8 °F - 19.4 °F 80% 29.88 in 6.0 mi Calm Calm - 0.00 in Snow Light Snow
4:49 AM 24.8 °F - 21.2 °F 86% 29.89 in 2.5 mi Calm Calm - 0.00 in Snow Light Snow
4:52 AM 25.0 °F - 21.9 °F 88% 29.93 in 2.0 mi Calm Calm - 0.00 in Snow Light Snow
5:35 AM 26.6 °F - 23.0 °F 86% 29.90 in 1.5 mi Calm Calm - 0.00 in Snow Light Snow
5:52 AM 26.1 °F 21.9 °F 23.0 °F 88% 29.94 in 1.8 mi North 3.5 mph - 0.01 in Snow Light Snow
6:07 AM 26.6 °F - 23.0 °F 86% 29.90 in 1.2 mi Calm Calm - 0.00 in Snow Light Snow
6:17 AM 26.6 °F - 23.0 °F 86% 29.90 in 1.8 mi Calm Calm - 0.00 in Snow Light Snow
6:19 AM 26.6 °F - 23.0 °F 86% 29.90 in 2.0 mi Calm Calm - 0.00 in Snow Light Snow
6:42 AM 26.6 °F - 23.0 °F 86% 29.91 in 1.5 mi Calm Calm - 0.01 in Snow Light Snow
7:12 AM 26.6 °F 21.2 °F 21.2 °F 80% 29.91 in 1.0 mi NNW 4.6 mph - 0.00 in Snow Light Snow
7:23 AM 26.6 °F 21.2 °F 21.2 °F 80% 29.91 in 1.8 mi NW 4.6 mph - 0.00 in Snow Light Snow
7:43 AM 24.8 °F 19.1 °F 21.2 °F 86% 29.91 in 2.5 mi NNW 4.6 mph - 0.01 in Snow Light Snow
7:52 AM 25.0 °F 19.3 °F 21.0 °F 85% 29.96 in 4.0 mi North 4.6 mph - 0.01 in Snow Light Snow
8:52 AM 27.0 °F 21.6 °F 21.0 °F 78% 29.96 in 10.0 mi NNW 4.6 mph - 0.00 in   Overcast
9:22 AM 26.6 °F 22.6 °F 19.4 °F 74% 29.90 in 10.0 mi North 3.5 mph - N/A   Overcast
9:52 AM 28.0 °F 24.2 °F 19.9 °F 72% 29.96 in 10.0 mi NNE 3.5 mph - N/A   Mostly Cloudy
10:52 AM 28.0 °F 22.8 °F 19.0 °F 69% 29.95 in 10.0 mi North 4.6 mph - N/A   Overcast
11:52 AM 28.9 °F 22.8 °F 17.1 °F 61% 29.93 in 10.0 mi NNW 5.8 mph - N/A   Overcast
12:26 PM 28.4 °F 23.3 °F 17.6 °F 64% 29.87 in 10.0 mi NNW 4.6 mph - N/A   Overcast
12:52 PM 28.9 °F 25.2 °F 16.0 °F 58% 29.91 in 10.0 mi NNW 3.5 mph - N/A   Overcast
1:52 PM 28.9 °F 21.9 °F 17.1 °F 61% 29.91 in 10.0 mi North 6.9 mph - N/A   Overcast
2:52 PM 28.9 °F 23.9 °F 16.0 °F 58% 29.91 in 10.0 mi NNE 4.6 mph - N/A   Overcast
3:52 PM 28.0 °F 19.3 °F 12.9 °F 53% 29.91 in 10.0 mi NNW 9.2 mph - N/A   Overcast
4:52 PM 25.0 °F 16.3 °F 10.0 °F 53% 29.91 in 10.0 mi NNW 8.1 mph - N/A   Overcast
5:52 PM 21.0 °F 16.2 °F 7.0 °F 55% 29.93 in 10.0 mi North 3.5 mph - N/A   Clear
6:52 PM 21.9 °F 11.7 °F 6.1 °F 51% 29.92 in 10.0 mi NNW 9.2 mph - N/A   Mostly Cloudy
7:52 PM 21.0 °F 12.4 °F 5.0 °F 50% 29.92 in 10.0 mi North 6.9 mph - N/A   Overcast
8:52 PM 19.9 °F 12.1 °F 6.1 °F 55% 29.91 in 10.0 mi NNE 5.8 mph - N/A   Overcast
9:52 PM 19.9 °F 13.4 °F 3.9 °F 50% 29.90 in 10.0 mi NNW 4.6 mph - N/A   Overcast
10:52 PM 19.0 °F 11.1 °F 3.9 °F 52% 29.87 in 10.0 mi NNW 5.8 mph - N/A   Overcast
11:52 PM 19.0 °F 11.1 °F 3.9 °F 52% 29.86 in 10.0 mi NNW 5.8 mph - N/A   Overcast